Location: Unspecified
(34.4950°S, 58.5160°W)
Time: 14:45:00
(UTC+00:00)

Cosmos 1655 Rocket - Pass Details

Date: 09 July 2022
Orbit: 971 x 1005 km, 83.0° (Epoch: 11 August)

Event Time Altitude Azimuth Distance (km) Brightness Sun altitude
Rises 08:20:56 0° 167° (SSE) 3,735 7.1 -32.2°
Reaches altitude 10° 08:24:42 10° 145° (SE) 2,770 6.6 -31.4°
Maximum altitude 08:28:22 16° 109° (ESE) 2,356 6.6 -30.7°
Drops below altitude 10° 08:32:00 10° 73° (ENE) 2,739 7.2 -29.9°
Sets 08:35:39 0° 52° (NE) 3,670 7.9 -29.2°
